OBJECT AU, 69022

Orbit data source: Space-Track

You're viewing an Uncataloged Satellite

Recently launched and/or uncataloged satellites may have evolving metadata. Metadata may include but not limited to: Owner, Maufacturer, Bus, Motor, and Mission.

OBJECT AU, 69022 is a satellite in SSO that was launched on Sun, 03 May 2026 UTC launched from the Air Force Western Test Range (AFWTR). Unknown objects in Earth's orbit typically refer to objects detected orbiting the Earth but have not yet been identified or cataloged. These objects could be anything from previously untracked satellites, spent rocket stages, debris from satellite collisions, or even natural meteoroids temporarily captured by Earth's gravity.

Loading next visibility...
Identifier
69022, 2026-100AU
Orbit
SSO
Country
Flag of TBDTBD
Related business
None
Manufacturer
Unknown
Mission
Operational spacecraft
Bus & Motor
Unknown
Mass
Unknown
Launch date (UTC)
2026-05-03 (1 week ago)
Launch vehicle
Unknown
Launch site
Air Force Western Test Range (AFWTR)
Object type
Unknown
Shape & HBR
Unknown
Radar Cross Section
RCS unknown

Expand to show TLE details & history
Last TLE update: 9 hours ago

TLE from 9 hours ago
0 OBJECT AU
1 69022U 26100AU  26130.11589671  .00002774  00000-0  13361-3 0  9995
2 69022  97.4060  28.6103 0006701 116.3543 243.8381 15.19555911  1028
Epoch: 2026-05-10T02:46Z
TLE epoch observation values (Epoch: 2026-05-10T02:46:53.475Z)
Latitude
-0°
Longitude
118.96389°
Altitude
512.309 km
Speed
7.607 km/s
True Right ascension
01h 54m 26s
True Declination
0° 00' 00"
Sunlit
Object was in daylight at epoch
Visualization orbit readout
Latitude
Unknown
Longitude
Unknown
Altitude
Unknown
Speed
Unknown
Apparent Right ascension
Unknown
Apparent Declination
Unknown
Sunlit
N/A
Visualization observer readout
Local Sidereal Time
19:44:56
Azimuth
Unknown
Elevation
Unknown
Doppler factor
Unknown
Orbital elements
Apogee altitude
508.76 km
Perigee altitude
499.536 km
Semi-major axis
6,882.285 km
Eccentricity
0.00067
Inclination
97.406°
RAAN
28.6103°
Arg. of periapsis
116.3543°
True anomaly
243.7692°
Mean anomaly
243.8381°
Eccentric anomaly
243.80365°
Mean motion
3.80141 °/min
Orbital period
94.7 mins
BSTAR
0.00013361
Loading maneuver chart data...
Computing Atmospheric mass density...
Loading historical data...
Loading historical data...
Loading historical data...
Loading historical data...
Loading historical data...
Loading historical data...
Loading historical data...

Documentation

Showing up to 5 results
|